Tracking 19572 objects as of 24-Feb-2019
HD Live streaming from Space Station
objects crossing your sky now

COSMOS 2287 (GLONASS)

Track COSMOS 2287 (GLONASS) now!
COSMOS 2287 (GLONASS) is classified as:


NORAD ID: 23203
Int'l Code: 1994-050A
Perigee: 19,112.3 km
Apogee: 19,161.7 km
Inclination: 66.0 °
Period: 675.7 minutes
Semi major axis: 25508 km
RCS: 3.2588 m2 (large)
Launch date: August 11, 1994
Source: Commonwealth of Independent States (former USSR) (CIS)
Launch site: TYURATAM MISSILE AND SPACE COMPLEX (TTMTR)
aabbcc
Your satellite tracking list
Your tracking list is empty




NASA's NSSDC Master Catalog

Two Line Element Set (TLE):
1 23203U 94050A   19051.50587425  .00000025  00000-0  00000+0 0  9996
2 23203  65.9656 289.7150 0009680  50.3586 133.8735  2.13102147190912
Source of the keplerian elements: AFSPC